Find Starlink 34624

NORAD ID: 64805 Int'l Des: 2025-150 Owner: SPXS Country: US Constellation: starlink operational
LEOCIRCULAR

現在のビュー

3D地球を読み込み中...

About Starlink 34624

Starlink 34624 (NORAD 64805) is a starlink constellation satellite (v2 mini) launched Jul 16, 2025 by SPXS of US. It operates in LEO, CIRCULAR orbit with a mass of 575.00 kg.

次回通過

Passes for default location (London). Set your location on the main map for personalized predictions.

高度履歴

Loading altitude history...

軌道要素

1 64805U 25150R 26263.02535543 .00004202 00000-0 35976-3 0 9993
2 64805 70.0027 4.5755 0003160 269.4088 90.6709 14.98329146 65621
Epoch: Sep 20, 2026 • Age: 16 hours

現在のステータス

高度 590.5 km
遠地点 / 近地点 N/A
速度 7.56 km/s
衛星直下点 -53.84°S, 88.14°E
打ち上げ日 Jul 16, 2025
運用期間 1.1 years
タイプ internet

技術仕様

分類 Payload
質量 575.00 kg
乾燥質量 530.00 kg
長さ 0.30 m
スパン 29.00 m
形状 ? Box + pan
製造者 SPXS
バスタイプ Starlink V2MO
フェーズステータス In Orbit
所有者/国 SPXS/US

Most Searched